CW3884 Weather Reports


Display with metric or nautical units.
time (UTC)temp
F
wind
direction
speed
MPH
gust
MPH
rain 1hr
in
rain 24hr
in
rain mn
in
humidity
%
barometer
mb
20190723060334 72 236 1.0 7.0 0.00 0.00 0.00 46 1013.7
20190723055837 73 225 1.0 6.0 0.00 0.00 0.00 46 1013.7
20190723055320 73 227 1.0 6.0 0.00 0.00 0.00 45 1013.7
20190723054829 73 192 1.0 5.0 0.00 0.00 0.00 45 1013.7
20190723054333 73 192 1.0 5.0 0.00 0.00 0.00 45 1013.8
20190723053834 73 190 1.0 5.0 0.00 0.00 0.00 44 1013.8
20190723053325 74 190 1.0 7.0 0.00 0.00 0.00 43 1013.8
20190723052815 74 188 1.0 7.0 0.00 0.00 0.00 43 1013.8
20190723052324 74 225 1.0 4.0 0.00 0.00 0.00 42 1013.8
20190723051829 74 202 0.0 6.0 0.00 0.00 0.00 42 1013.8
20190723051333 75 200 1.0 7.0 0.00 0.00 0.00 42 1013.7
20190723050820 75 206 4.0 7.0 0.00 0.00 0.00 41 1013.7
20190723050320 75 215 1.0 5.0 0.00 0.00 0.00 41 1013.7
20190723045825 75 205 0.0 3.0 0.00 0.00 0.00 40 1013.6
20190723045330 76 205 1.0 5.0 0.00 0.00 0.00 40 1013.6
20190723044837 76 202 0.0 4.0 0.00 0.00 0.00 39 1013.6
20190723044327 76 202 0.0 4.0 0.00 0.00 0.00 40 1013.7
20190723043837 76 204 1.0 4.0 0.00 0.00 0.00 38 1013.7
20190723043321 77 203 0.0 4.0 0.00 0.00 0.00 38 1013.7
20190723042827 77 203 0.0 4.0 0.00 0.00 0.00 37 1013.7
20190723042337 77 203 0.0 3.0 0.00 0.00 0.00 37 1013.7
20190723041820 78 203 0.0 1.0 0.00 0.00 0.00 35 1013.7
20190723041328 78 203 0.0 2.0 0.00 0.00 0.00 35 1013.5
20190723040821 79 203 0.0 1.0 0.00 0.00 0.00 34 1013.5
20190723040336 79 203 0.0 3.0 0.00 0.00 0.00 34 1013.5
20190723035819 79 203 1.0 3.0 0.00 0.00 0.00 35 1013.3
20190723033833 82 202 0.0 4.0 0.00 0.00 0.00 33 1013.2
20190723033321 82 202 1.0 4.0 0.00 0.00 0.00 33 1013.2
20190723032827 82 201 0.0 4.0 0.00 0.00 0.00 33 1013.2
20190723032335 83 201 0.0 4.0 0.00 0.00 0.00 32 1013.2
20190723031822 83 201 0.0 6.0 0.00 0.00 0.00 30 1013.2
20190723031328 84 200 1.0 6.0 0.00 0.00 0.00 30 1013.1
20190723030833 84 276 0.0 4.0 0.00 0.00 0.00 30 1013.1
20190723030409 85 276 1.0 4.0 0.00 0.00 0.00 29 1013.1
20190723025321 85 282 0.0 1.0 0.00 0.00 0.00 29 1012.9
20190723024826 86 282 0.0 1.0 0.00 0.00 0.00 29 1012.9
20190723024334 86 282 0.0 5.0 0.00 0.00 0.00 29 1012.9
20190723023831 86 282 0.0 5.0 0.00 0.00 0.00 28 1012.9
20190723023337 87 281 0.0 4.0 0.00 0.00 0.00 29 1012.9
20190723022823 87 281 0.0 4.0 0.00 0.00 0.00 28 1012.8
20190723022324 87 280 0.0 7.0 0.00 0.00 0.00 29 1012.8
20190723021834 88 282 1.0 7.0 0.00 0.00 0.00 28 1012.8
20190723021328 88 259 0.0 6.0 0.00 0.00 0.00 28 1012.7
20190723020832 88 259 1.0 6.0 0.00 0.00 0.00 28 1012.7
20190723020334 89 238 1.0 6.0 0.00 0.00 0.00 28 1012.7
20190723015825 90 283 1.0 5.0 0.00 0.00 0.00 27 1012.6
20190723015329 90 243 1.0 5.0 0.00 0.00 0.00 28 1012.6
20190723014819 90 227 1.0 5.0 0.00 0.00 0.00 28 1012.6
20190723014329 90 257 2.0 6.0 0.00 0.00 0.00 27 1012.4
20190723013834 90 279 1.0 6.0 0.00 0.00 0.00 27 1012.4
20190723013320 91 186 2.0 7.0 0.00 0.00 0.00 27 1012.4
20190723012824 91 230 2.0 7.0 0.00 0.00 0.00 28 1012.4
20190723012316 91 222 2.0 8.0 0.00 0.00 0.00 28 1012.4
20190723011826 91 209 1.0 9.0 0.00 0.00 0.00 28 1012.4
20190723011322 92 309 0.0 9.0 0.00 0.00 0.00 27 1012.4
20190723010825 92 232 1.0 6.0 0.00 0.00 0.00 27 1012.4
20190723010320 92 219 1.0 11.0 0.00 0.00 0.00 27 1012.4
20190723005828 93 307 2.0 10.0 0.00 0.00 0.00 27 1012.4
20190723005336 92 315 1.0 7.0 0.00 0.00 0.00 27 1012.4
20190723004823 91 232 1.0 11.0 0.00 0.00 0.00 28 1012.4
20190723004321 91 312 3.0 11.0 0.00 0.00 0.00 28 1012.3
20190723003858 92 261 3.0 10.0 0.00 0.00 0.00 26 1012.3
20190723002826 93 232 3.0 9.0 0.00 0.00 0.00 25 1012.4
20190723002333 93 302 2.0 9.0 0.00 0.00 0.00 25 1012.4
20190723001823 93 301 3.0 9.0 0.00 0.00 0.00 24 1012.4
20190723001333 93 294 2.0 10.0 0.00 0.00 0.00 23 1012.4
20190723000831 94 288 2.0 10.0 0.00 0.00 0.00 21 1012.4
20190723000323 94 229 1.0 7.0 0.00 0.00 0.00 22 1012.4
20190722235829 95 294 2.0 9.0 0.00 0.00 0.00 22 1012.4
20190722235335 95 246 2.0 9.0 0.00 0.00 0.00 21 1012.4
20190722234823 95 224 2.0 8.0 0.00 0.00 0.00 21 1012.4
20190722234329 94 254 2.0 8.0 0.00 0.00 0.00 21 1012.6
20190722233835 95 244 3.0 11.0 0.00 0.00 0.00 19 1012.6
20190722233320 95 237 3.0 11.0 0.00 0.00 0.00 20 1012.6
20190722232826 95 226 1.0 9.0 0.00 0.00 0.00 21 1012.7
20190722232331 95 208 4.0 7.0 0.00 0.00 0.00 20 1012.7
20190722231834 96 339 2.0 8.0 0.00 0.00 0.00 19 1012.7
20190722231336 96 194 1.0 14.0 0.00 0.00 0.00 19 1012.6
20190722230819 95 218 2.0 14.0 0.00 0.00 0.00 20 1012.6
20190722230326 96 308 1.0 10.0 0.00 0.00 0.00 21 1012.6
20190722225832 96 326 1.0 8.0 0.00 0.00 0.00 21 1012.7
20190722225335 96 277 0.0 9.0 0.00 0.00 0.00 21 1012.7
20190722224820 94 230 2.0 8.0 0.00 0.00 0.00 25 1012.7
20190722224326 95 271 1.0 6.0 0.00 0.00 0.00 23 1012.7
20190722223834 96 292 0.0 7.0 0.00 0.00 0.00 23 1012.7
20190722223337 95 292 1.0 7.0 0.00 0.00 0.00 24 1012.7
20190722222828 93 310 1.0 10.0 0.00 0.00 0.00 26 1012.8
20190722222336 93 296 4.0 10.0 0.00 0.00 0.00 25 1012.8
20190722221825 95 292 0.0 5.0 0.00 0.00 0.00 24 1012.8
20190722221330 94 296 0.0 5.0 0.00 0.00 0.00 26 1013.1
20190722220837 93 296 0.0 7.0 0.00 0.00 0.00 26 1013.1
20190722220319 93 298 0.0 7.0 0.00 0.00 0.00 26 1013.1
20190722215824 93 309 0.0 6.0 0.00 0.00 0.00 26 1013.1
20190722215337 93 302 0.0 6.0 0.00 0.00 0.00 27 1013.1
20190722214821 92 292 0.0 7.0 0.00 0.00 0.00 27 1013.1
20190722214327 92 280 0.0 7.0 0.00 0.00 0.00 27 1013.2
20190722213826 92 290 0.0 6.0 0.00 0.00 0.00 28 1013.2
20190722213331 92 296 1.0 6.0 0.00 0.00 0.00 26 1013.2
20190722212837 92 217 2.0 6.0 0.00 0.00 0.00 27 1013.2
20190722212322 93 306 0.0 5.0 0.00 0.00 0.00 27 1013.2
20190722211826 93 305 1.0 5.0 0.00 0.00 0.00 26 1013.2
20190722211338 92 304 0.0 7.0 0.00 0.00 0.00 27 1013.3
20190722210825 91 304 2.0 7.0 0.00 0.00 0.00 28 1013.3
20190722210332 91 315 1.0 5.0 0.00 0.00 0.00 27 1013.3
20190722205816 91 311 1.0 7.0 0.00 0.00 0.00 27 1013.4
20190722205322 91 300 0.0 6.0 0.00 0.00 0.00 27 1013.4
20190722204827 89 294 0.0 7.0 0.00 0.00 0.00 28 1013.4
20190722204337 88 273 0.0 7.0 0.00 0.00 0.00 28 1013.7
20190722203819 88 321 2.0 8.0 0.00 0.00 0.00 29 1013.7
20190722203329 88 274 2.0 8.0 0.00 0.00 0.00 30 1013.7
20190722202833 88 306 1.0 7.0 0.00 0.00 0.00 30 1013.8
20190722202331 89 289 1.0 7.0 0.00 0.00 0.00 29 1013.8
20190722201832 88 288 1.0 7.0 0.00 0.00 0.00 32 1013.8
20190722201322 87 309 0.0 4.0 0.00 0.00 0.00 32 1014.0
20190722200830 87 311 0.0 2.0 0.00 0.00 0.00 33 1014.0
20190722200336 86 311 0.0 3.0 0.00 0.00 0.00 34 1014.0
20190722195826 86 308 0.0 3.0 0.00 0.00 0.00 34 1014.1
20190722195336 86 287 0.0 4.0 0.00 0.00 0.00 35 1014.1
20190722194837 86 315 0.0 5.0 0.00 0.00 0.00 35 1014.1
20190722194322 86 321 1.0 5.0 0.00 0.00 0.00 35 1014.2
20190722193826 86 319 1.0 7.0 0.00 0.00 0.00 34 1014.2
20190722193321 85 300 0.0 7.0 0.00 0.00 0.00 35 1014.2
20190722192825 85 284 0.0 4.0 0.00 0.00 0.00 36 1014.2
20190722192330 85 285 0.0 4.0 0.00 0.00 0.00 37 1014.2
20190722191819 85 284 0.0 7.0 0.00 0.00 0.00 37 1014.2
20190722191327 85 284 1.0 7.0 0.00 0.00 0.00 37 1014.3
20190722190831 85 261 0.0 4.0 0.00 0.00 0.00 38 1014.3
20190722190336 85 260 0.0 6.0 0.00 0.00 0.00 38 1014.3
20190722185837 84 260 2.0 6.0 0.00 0.00 0.00 38 1014.2
20190722185324 84 259 0.0 3.0 0.00 0.00 0.00 39 1014.2
20190722184834 84 258 0.0 4.0 0.00 0.00 0.00 39 1014.2
20190722184338 84 258 0.0 4.0 0.00 0.00 0.00 39 1014.2
20190722183819 84 257 1.0 4.0 0.00 0.00 0.00 39 1014.2
20190722183325 84 256 0.0 3.0 0.00 0.00 0.00 39 1014.2
20190722182832 84 255 0.0 4.0 0.00 0.00 0.00 39 1014.2
20190722182335 83 255 1.0 4.0 0.00 0.00 0.00 40 1014.2
20190722181820 83 254 0.0 3.0 0.00 0.00 0.00 41 1014.2
20190722181325 82 250 0.0 3.0 0.00 0.00 0.00 39 1014.2
20190722180820 81 249 0.0 1.0 0.00 0.00 0.00 40 1014.2
20190722180323 81 249 0.0 4.0 0.00 0.00 0.00 42 1014.2
20190722175832 81 249 1.0 5.0 0.00 0.00 0.00 42 1014.2
20190722175316 80 249 1.0 5.0 0.00 0.00 0.00 42 1014.2
20190722174824 80 242 0.0 1.0 0.00 0.00 0.00 44 1014.2
20190722174330 79 242 0.0 4.0 0.00 0.00 0.00 45 1014.2
20190722173836 79 242 0.0 4.0 0.00 0.00 0.00 42 1014.2
20190722173326 79 242 0.0 4.0 0.00 0.00 0.00 45 1014.2
20190722172830 79 242 1.0 4.0 0.00 0.00 0.00 42 1014.2
20190722172319 78 245 0.0 5.0 0.00 0.00 0.00 41 1014.2
20190722171829 78 245 3.0 6.0 0.00 0.00 0.00 41 1014.2
20190722171334 78 242 0.0 6.0 0.00 0.00 0.00 42 1014.2
20190722170832 77 240 1.0 5.0 0.00 0.00 0.00 43 1014.2
20190722170320 77 232 0.0 5.0 0.00 0.00 0.00 46 1014.2
20190722165825 76 232 2.0 5.0 0.00 0.00 0.00 46 1014.3
20190722165335 76 231 0.0 5.0 0.00 0.00 0.00 50 1014.3
20190722164824 75 231 0.0 1.0 0.00 0.00 0.00 50 1014.3
20190722164330 75 261 0.0 4.0 0.00 0.00 0.00 52 1014.3
20190722163838 75 261 1.0 5.0 0.00 0.00 0.00 53 1014.3